Project,Study,Ord_Occ,Event_Num,Date_Time_UTC,Date_Time_PST,Lat_Dec,Lon_Dec,Sta_ID,Line,Sta,Depth,Pressure,Temp0,Temp1,Salt0,CorrSalt0,Salt1,CorrSalt1,O2ml/L,AveCorrO2ml/L,StaCorrO2ml/L,FluorV,AveEstChl,StaEstChl,ISUSV,AveEstNO3,StaEstNO3,SigThetaTS0,SigThetaTS1,BAT,XMiss,SPAR,PAR,BTL_Depth,BTL_Temp,BTL_Salt,BTL_O2ml/L,BTL_Chl,BTL_Pha,BTL_NO3
CalCOFI,0701JD,048,471,24-Jan-2007 5:49:22 PM,24-Jan-2007 9:49:22 AM,34.17950,-119.51142,083.3 042.0,083.3,042.0,120.000,120.900,10.6150,10.6139,33.8507,33.8494,33.8485,33.8486,2.13937,2.57,2.68,0.0303,0.05,0.05,1.1800,24.15,21.808,25.9513,25.9497,0.5403,87.3645,4.3123e+00,9.9990e+03,121,10.64 ,33.848, 2.55,.05,.14,22.4
CalCOFI,0701JD,048,471,24-Jan-2007 5:50:20 PM,24-Jan-2007 9:50:20 AM,34.17966,-119.51150,083.3 042.0,083.3,042.0,119.000,119.892,10.6734,10.6765,33.8358,33.8345,33.8325,33.8326,2.16854,2.61,2.72,0.0303,0.05,0.05,1.1720,23.91,21.581,25.9294,25.9262,0.5322,87.5418,4.3050e+00,9.9990e+03,,,,,,,
CalCOFI,0701JD,048,471,24-Jan-2007 5:50:20 PM,24-Jan-2007 9:50:20 AM,34.17966,-119.51150,083.3 042.0,083.3,042.0,118.000,118.884,10.6928,10.6936,33.8311,33.8298,33.8289,33.8290,2.17446,2.62,2.72,0.0298,0.05,0.04,1.1783,24.10,21.760,25.9223,25.9204,0.5222,87.7610,4.1055e+00,9.9990e+03,,,,,,,
CalCOFI,0701JD,048,471,24-Jan-2007 5:50:21 PM,24-Jan-2007 9:50:21 AM,34.17966,-119.51150,083.3 042.0,083.3,042.0,117.000,117.876,10.7054,10.7059,33.8275,33.8262,33.8255,33.8256,2.17906,2.62,2.73,0.0308,0.05,0.05,1.1745,23.98,21.652,25.9173,25.9156,0.5169,87.8773,4.3201e+00,9.9990e+03,,,,,,,
CalCOFI,0701JD,048,471,24-Jan-2007 5:50:22 PM,24-Jan-2007 9:50:22 AM,34.17966,-119.51150,083.3 042.0,083.3,042.0,116.000,116.868,10.7083,10.7082,33.8264,33.8251,33.8246,33.8247,2.18406,2.63,2.73,0.0317,0.05,0.06,1.1667,23.76,21.431,25.9158,25.9145,0.5178,87.8585,4.4814e+00,9.9990e+03,,,,,,,
CalCOFI,0701JD,048,471,24-Jan-2007 5:50:23 PM,24-Jan-2007 9:50:23 AM,34.17966,-119.51150,083.3 042.0,083.3,042.0,115.000,115.861,10.7089,10.7098,33.8262,33.8249,33.8240,33.8241,2.19065,2.64,2.74,0.0317,0.05,0.06,1.1659,23.73,21.408,25.9156,25.9137,0.5122,87.9805,5.1246e+00,9.9990e+03,,,,,,,
CalCOFI,0701JD,048,471,24-Jan-2007 5:50:24 PM,24-Jan-2007 9:50:24 AM,34.17966,-119.51150,083.3 042.0,083.3,042.0,114.000,114.853,10.7205,10.7210,33.8244,33.8231,33.8220,33.8221,2.19692,2.64,2.75,0.0303,0.05,0.05,1.1358,22.85,20.554,25.9121,25.9101,0.5127,87.9694,4.5717e+00,9.9990e+03,,,,,,,
CalCOFI,0701JD,048,471,24-Jan-2007 5:50:26 PM,24-Jan-2007 9:50:26 AM,34.17966,-119.51150,083.3 042.0,083.3,042.0,113.000,113.845,10.7586,10.7590,33.8176,33.8163,33.8147,33.8148,2.20136,2.65,2.75,0.0309,0.05,0.05,1.1591,23.53,21.215,25.9001,25.8978,0.5237,87.7295,4.5826e+00,9.9990e+03,,,,,,,
CalCOFI,0701JD,048,471,24-Jan-2007 5:50:27 PM,24-Jan-2007 9:50:27 AM,34.17966,-119.51150,083.3 042.0,083.3,042.0,112.000,112.837,10.7903,10.7925,33.8118,33.8105,33.8096,33.8097,2.20413,2.65,2.76,0.0307,0.05,0.05,1.1906,24.46,22.109,25.8900,25.8879,0.5462,87.2368,4.3619e+00,9.9990e+03,,,,,,,
CalCOFI,0701JD,048,471,24-Jan-2007 5:50:29 PM,24-Jan-2007 9:50:29 AM,34.17966,-119.51150,083.3 042.0,083.3,042.0,111.000,111.830,10.8035,10.8093,33.8100,33.8087,33.8071,33.8072,2.20753,2.66,2.76,0.0314,0.05,0.05,1.1650,23.71,21.382,25.8862,25.8830,0.5608,86.9187,4.4029e+00,9.9990e+03,,,,,,,
CalCOFI,0701JD,048,471,24-Jan-2007 5:50:30 PM,24-Jan-2007 9:50:30 AM,34.17966,-119.51150,083.3 042.0,083.3,042.0,110.000,110.822,10.8212,10.8255,33.8072,33.8059,33.8045,33.8046,2.21026,2.66,2.76,0.0315,0.05,0.05,1.1383,22.92,20.625,25.8809,25.8780,0.5709,86.6988,4.6550e+00,9.9990e+03,,,,,,,
CalCOFI,0701JD,048,471,24-Jan-2007 5:50:32 PM,24-Jan-2007 9:50:32 AM,34.17966,-119.51150,083.3 042.0,083.3,042.0,109.000,109.814,10.8318,10.8332,33.8056,33.8043,33.8033,33.8034,2.21084,2.66,2.77,0.0318,0.05,0.06,1.1549,23.41,21.096,25.8777,25.8757,0.5867,86.3587,4.5978e+00,9.9990e+03,,,,,,,
CalCOFI,0701JD,048,471,24-Jan-2007 5:50:33 PM,24-Jan-2007 9:50:33 AM,34.17966,-119.51150,083.3 042.0,083.3,042.0,108.000,108.806,10.8413,10.8429,33.8038,33.8025,33.8016,33.8017,-9.990e-29,,2.77,0.0319,0.05,0.06,1.1194,22.37,20.088,25.8746,25.8726,0.5998,86.0756,4.3823e+00,9.9990e+03,108,10.88 ,33.796, 2.65,.05,.17,21.2
CalCOFI,0701JD,048,471,24-Jan-2007 5:50:52 PM,24-Jan-2007 9:50:52 AM,34.17975,-119.51152,083.3 042.0,083.3,042.0,107.000,107.799,10.8627,10.8654,33.7998,33.7985,33.7975,33.7976,2.22680,2.68,2.78,0.0323,0.05,0.06,1.1043,21.92,19.660,25.8677,25.8655,0.6065,85.9312,4.5714e+00,9.9990e+03,,,,,,,
CalCOFI,0701JD,048,471,24-Jan-2007 5:53:03 PM,24-Jan-2007 9:53:03 AM,34.18017,-119.51168,083.3 042.0,083.3,042.0,106.000,106.791,10.9027,10.9055,33.7935,33.7922,33.7909,33.7910,2.24500,2.70,2.81,0.0312,0.05,0.05,1.1611,23.59,21.272,25.8557,25.8532,0.6215,85.6094,4.5734e+00,9.9990e+03,,,,,,,
CalCOFI,0701JD,048,471,24-Jan-2007 5:53:00 PM,24-Jan-2007 9:53:00 AM,34.18016,-119.51168,083.3 042.0,083.3,042.0,105.000,105.783,10.9543,10.9576,33.7841,33.7828,33.7812,33.7813,2.25507,2.71,2.82,0.0322,0.05,0.06,1.1138,22.20,19.930,25.8392,25.8363,0.6210,85.6202,4.6201e+00,9.9990e+03,,,,,,,
CalCOFI,0701JD,048,471,24-Jan-2007 5:53:02 PM,24-Jan-2007 9:53:02 AM,34.18016,-119.51171,083.3 042.0,083.3,042.0,104.000,104.776,11.0203,11.0256,33.7782,33.7769,33.7751,33.7752,2.26428,2.73,2.83,0.0342,0.06,0.07,1.1120,22.15,19.879,25.8228,25.8194,0.6930,84.0929,4.9577e+00,9.9990e+03,,,,,,,
CalCOFI,0701JD,048,471,24-Jan-2007 5:53:03 PM,24-Jan-2007 9:53:03 AM,34.18016,-119.51184,083.3 042.0,083.3,042.0,103.000,103.768,11.0877,11.0948,33.7698,33.7685,33.7664,33.7665,2.27906,2.74,2.85,0.0344,0.06,0.07,1.1050,21.94,19.680,25.8041,25.8001,0.8132,81.6051,4.7989e+00,9.9990e+03,,,,,,,
CalCOFI,0701JD,048,471,24-Jan-2007 5:53:04 PM,24-Jan-2007 9:53:04 AM,34.18016,-119.51184,083.3 042.0,083.3,042.0,102.000,102.760,11.1092,11.1097,33.7632,33.7619,33.7624,33.7625,2.29128,2.76,2.86,0.0380,0.07,0.10,1.1125,22.16,19.893,25.7951,25.7943,0.8292,81.2769,4.5693e+00,9.9990e+03,,,,,,,
CalCOFI,0701JD,048,471,24-Jan-2007 5:53:05 PM,24-Jan-2007 9:53:05 AM,34.18016,-119.51184,083.3 042.0,083.3,042.0,101.000,101.752,11.1124,11.1123,33.7559,33.7546,33.7545,33.7546,2.29663,2.77,2.87,0.0394,0.07,0.11,1.1106,22.11,19.839,25.7888,25.7878,0.7452,83.0076,4.7014e+00,9.9990e+03,,,,,,,
CalCOFI,0701JD,048,471,24-Jan-2007 5:53:07 PM,24-Jan-2007 9:53:07 AM,34.18016,-119.51184,083.3 042.0,083.3,042.0,100.000,100.745,11.1216,11.1229,33.7532,33.7519,33.7515,33.7516,2.31092,2.78,2.88,0.0363,0.06,0.09,1.0972,21.72,19.459,25.7851,25.7835,0.6895,84.1659,4.5750e+00,9.9990e+03,,,,,,,
CalCOFI,0701JD,048,471,24-Jan-2007 5:53:09 PM,24-Jan-2007 9:53:09 AM,34.18016,-119.51184,083.3 042.0,083.3,042.0,99.000,99.737,11.1316,11.1307,33.7519,33.7506,33.7503,33.7504,2.31331,2.79,2.89,0.0360,0.06,0.08,1.0844,21.34,19.095,25.7822,25.7812,0.6863,84.2344,4.7709e+00,9.9990e+03,,,,,,,
CalCOFI,0701JD,048,471,24-Jan-2007 5:53:10 PM,24-Jan-2007 9:53:10 AM,34.18016,-119.51184,083.3 042.0,083.3,042.0,98.000,98.729,11.1431,11.1432,33.7518,33.7505,33.7500,33.7501,2.31206,2.78,2.88,0.0342,0.06,0.07,1.0684,20.87,18.641,25.7800,25.7786,0.6892,84.1722,4.6410e+00,9.9990e+03,,,,,,,
CalCOFI,0701JD,048,471,24-Jan-2007 5:53:11 PM,24-Jan-2007 9:53:11 AM,34.18016,-119.51184,083.3 042.0,083.3,042.0,97.000,97.722,11.1627,11.1635,33.7525,33.7512,33.7506,33.7507,2.32180,2.80,2.90,0.0400,0.07,0.11,1.0544,20.46,18.244,25.7770,25.7754,0.7390,83.1324,4.7985e+00,9.9990e+03,,,,,,,
CalCOFI,0701JD,048,471,24-Jan-2007 5:53:12 PM,24-Jan-2007 9:53:12 AM,34.18016,-119.51184,083.3 042.0,083.3,042.0,96.000,96.714,11.1775,11.1797,33.7527,33.7514,33.7506,33.7507,2.34200,2.82,2.92,0.0383,0.07,0.10,1.0588,20.59,18.369,25.7745,25.7725,0.7785,82.3144,4.6183e+00,9.9990e+03,,,,,,,
CalCOFI,0701JD,048,471,24-Jan-2007 5:53:14 PM,24-Jan-2007 9:53:14 AM,34.18016,-119.51184,083.3 042.0,083.3,042.0,95.000,95.706,11.2525,11.2568,33.7484,33.7471,33.7447,33.7448,2.37183,2.86,2.96,0.0390,0.07,0.10,1.0666,20.82,18.590,25.7575,25.7539,0.8375,81.1125,4.6606e+00,9.9990e+03,,,,,,,
CalCOFI,0701JD,048,471,24-Jan-2007 5:53:46 PM,24-Jan-2007 9:53:46 AM,34.18018,-119.51189,083.3 042.0,083.3,042.0,94.000,94.699,11.4095,11.4167,33.7271,33.7258,33.7249,33.7250,2.40459,2.90,2.99,0.0492,0.10,0.17,1.0649,20.77,18.542,25.7124,25.7094,0.9035,79.7815,4.8347e+00,9.9990e+03,94,11.50 ,33.711, 3.05,.13,.27,17.8
CalCOFI,0701JD,048,471,24-Jan-2007 5:56:34 PM,24-Jan-2007 9:56:34 AM,34.18032,-119.51218,083.3 042.0,083.3,042.0,93.000,93.691,11.5408,11.5455,33.7070,33.7057,33.7042,33.7043,2.60329,3.14,3.23,0.0495,0.10,0.17,1.0015,18.91,16.743,25.6727,25.6696,0.8756,80.3395,4.7657e+00,9.9990e+03,,,,,,,
CalCOFI,0701JD,048,471,24-Jan-2007 5:56:33 PM,24-Jan-2007 9:56:33 AM,34.18032,-119.51218,083.3 042.0,083.3,042.0,92.000,92.683,11.6049,11.6078,33.6966,33.6953,33.6934,33.6935,2.64730,3.19,3.28,0.0494,0.10,0.17,1.0121,19.22,17.044,25.6527,25.6497,0.8735,80.3825,5.1966e+00,9.9990e+03,,,,,,,
CalCOFI,0701JD,048,471,24-Jan-2007 5:56:35 PM,24-Jan-2007 9:56:35 AM,34.18032,-119.51218,083.3 042.0,083.3,042.0,91.000,91.676,11.6871,11.6872,33.6828,33.6815,33.6807,33.6808,2.70918,3.27,3.35,0.0564,0.12,0.21,1.0175,19.38,17.197,25.6268,25.6251,0.8492,80.8718,4.9210e+00,9.9990e+03,,,,,,,
CalCOFI,0701JD,048,471,24-Jan-2007 5:56:36 PM,24-Jan-2007 9:56:36 AM,34.18032,-119.51218,083.3 042.0,083.3,042.0,90.000,90.668,11.7578,11.7642,33.6725,33.6712,33.6699,33.6700,2.80556,3.39,3.47,0.0605,0.13,0.23,1.0054,19.02,16.854,25.6057,25.6025,0.8329,81.2036,5.1446e+00,9.9990e+03,,,,,,,
CalCOFI,0701JD,048,471,24-Jan-2007 5:56:38 PM,24-Jan-2007 9:56:38 AM,34.18032,-119.51218,083.3 042.0,083.3,042.0,89.000,89.660,11.8459,11.8395,33.6636,33.6623,33.6611,33.6612,2.89454,3.49,3.57,0.0589,0.13,0.22,0.9721,18.04,15.909,25.5823,25.5815,0.8035,81.8004,5.0970e+00,9.9990e+03,,,,,,,
CalCOFI,0701JD,048,471,24-Jan-2007 5:56:39 PM,24-Jan-2007 9:56:39 AM,34.18032,-119.51218,083.3 042.0,083.3,042.0,88.000,88.653,11.9683,11.9627,33.6510,33.6497,33.6478,33.6479,2.96663,3.58,3.66,0.0644,0.15,0.26,0.9824,18.35,16.201,25.5495,25.5481,0.7674,82.5435,4.7238e+00,9.9990e+03,,,,,,,
CalCOFI,0701JD,048,471,24-Jan-2007 5:56:40 PM,24-Jan-2007 9:56:40 AM,34.18032,-119.51218,083.3 042.0,083.3,042.0,87.000,87.645,12.0678,12.0697,33.6390,33.6377,33.6365,33.6366,3.03297,3.66,3.74,0.0703,0.16,0.29,0.9497,17.39,15.274,25.5215,25.5191,0.7046,83.8519,5.2375e+00,9.9990e+03,,,,,,,
CalCOFI,0701JD,048,471,24-Jan-2007 5:56:41 PM,24-Jan-2007 9:56:41 AM,34.18032,-119.51218,083.3 042.0,083.3,042.0,86.000,86.637,12.1414,12.1446,33.6316,33.6303,33.6283,33.6284,3.09516,3.74,3.81,0.0671,0.15,0.27,0.9392,17.08,14.976,25.5017,25.4985,0.6502,84.9978,4.7716e+00,9.9990e+03,,,,,,,
CalCOFI,0701JD,048,471,24-Jan-2007 5:56:42 PM,24-Jan-2007 9:56:42 AM,34.18032,-119.51218,083.3 042.0,083.3,042.0,85.000,85.630,12.2267,12.2255,33.6227,33.6214,33.6198,33.6199,3.15391,3.81,3.88,0.0735,0.17,0.31,0.9209,16.54,14.456,25.4786,25.4765,0.6209,85.6234,5.0531e+00,9.9990e+03,,,,,,,
CalCOFI,0701JD,048,471,24-Jan-2007 5:56:44 PM,24-Jan-2007 9:56:44 AM,34.18032,-119.51218,083.3 042.0,083.3,042.0,84.000,84.622,12.3113,12.3125,33.6123,33.6110,33.6102,33.6103,3.19760,3.86,3.93,0.0745,0.17,0.31,0.8987,15.89,13.826,25.4543,25.4525,0.5916,86.2514,5.1595e+00,9.9990e+03,,,,,,,
CalCOFI,0701JD,048,471,24-Jan-2007 5:56:45 PM,24-Jan-2007 9:56:45 AM,34.18032,-119.51218,083.3 042.0,083.3,042.0,83.000,83.615,12.3579,12.3558,33.6051,33.6038,33.6039,33.6040,3.26058,3.94,4.00,0.0843,0.20,0.37,0.8807,15.36,13.316,25.4398,25.4392,0.5634,86.8613,5.3372e+00,9.9990e+03,,,,,,,
CalCOFI,0701JD,048,471,24-Jan-2007 5:56:46 PM,24-Jan-2007 9:56:46 AM,34.18032,-119.51218,083.3 042.0,083.3,042.0,82.000,82.607,12.4245,12.4234,33.6003,33.5990,33.5973,33.5974,3.32181,4.02,4.08,0.0868,0.21,0.38,0.8673,14.97,12.936,25.4232,25.4211,0.5447,87.2688,5.3209e+00,9.9990e+03,,,,,,,
CalCOFI,0701JD,048,471,24-Jan-2007 5:56:49 PM,24-Jan-2007 9:56:49 AM,34.18032,-119.51218,083.3 042.0,083.3,042.0,81.000,81.599,12.4964,12.5054,33.6022,33.6009,33.5936,33.5937,3.30264,3.99,4.05,0.0878,0.21,0.39,0.8473,14.38,12.368,25.4108,25.4024,0.5501,87.1518,4.9678e+00,9.9990e+03,,,,,,,
CalCOFI,0701JD,048,471,24-Jan-2007 5:57:36 PM,24-Jan-2007 9:57:36 AM,34.18041,-119.51223,083.3 042.0,083.3,042.0,80.000,80.592,12.4444,12.4129,33.6133,33.6120,33.6089,33.6090,3.40208,4.11,4.17,0.0941,0.23,0.42,0.7880,12.64,10.686,25.4293,25.4319,0.5726,86.6623,5.3034e+00,9.9990e+03,80,12.66 ,33.591, 4.30,.32,.26,9.8
CalCOFI,0701JD,048,471,24-Jan-2007 5:58:44 PM,24-Jan-2007 9:58:44 AM,34.18050,-119.51234,083.3 042.0,083.3,042.0,79.000,79.584,12.6878,12.6924,33.5881,33.5868,33.5869,33.5870,3.60646,4.36,4.41,0.0963,0.24,0.43,0.7782,12.35,10.407,25.3626,25.3608,0.5603,86.9284,5.3512e+00,9.9990e+03,,,,,,,
CalCOFI,0701JD,048,471,24-Jan-2007 5:58:46 PM,24-Jan-2007 9:58:46 AM,34.18050,-119.51234,083.3 042.0,083.3,042.0,78.000,78.577,12.7117,12.7183,33.5872,33.5859,33.5857,33.5858,3.61106,4.37,4.42,0.0937,0.23,0.42,0.7414,11.27,9.363,25.3573,25.3548,0.5571,86.9986,5.1345e+00,9.9990e+03,,,,,,,
CalCOFI,0701JD,048,471,24-Jan-2007 5:58:47 PM,24-Jan-2007 9:58:47 AM,34.18050,-119.51234,083.3 042.0,083.3,042.0,77.000,77.569,12.7489,12.7522,33.5841,33.5828,33.5826,33.5827,3.61658,4.37,4.42,0.0961,0.24,0.43,0.7127,10.43,8.549,25.3476,25.3457,0.5465,87.2287,4.9416e+00,9.9990e+03,,,,,,,
CalCOFI,0701JD,048,471,24-Jan-2007 5:58:50 PM,24-Jan-2007 9:58:50 AM,34.18050,-119.51234,083.3 042.0,083.3,042.0,76.000,76.562,12.7685,12.7693,33.5817,33.5804,33.5810,33.5811,3.62668,4.39,4.44,0.0995,0.25,0.45,0.7556,11.69,9.766,25.3419,25.3412,0.5404,87.3618,5.1607e+00,9.9990e+03,,,,,,,
CalCOFI,0701JD,048,471,24-Jan-2007 5:58:51 PM,24-Jan-2007 9:58:51 AM,34.18050,-119.51234,083.3 042.0,083.3,042.0,75.000,75.554,12.7789,12.7811,33.5821,33.5808,33.5811,33.5812,3.65807,4.43,4.47,0.1067,0.27,0.48,0.7678,12.05,10.112,25.3401,25.3389,0.5390,87.3933,5.1190e+00,9.9990e+03,,,,,,,
CalCOFI,0701JD,048,471,24-Jan-2007 5:58:53 PM,24-Jan-2007 9:58:53 AM,34.18050,-119.51234,083.3 042.0,083.3,042.0,74.000,74.546,12.8122,12.8165,33.5835,33.5822,33.5825,33.5826,3.67905,4.45,4.50,0.0970,0.24,0.44,0.7457,11.40,9.485,25.3347,25.3330,0.5396,87.3794,5.0856e+00,9.9990e+03,,,,,,,
CalCOFI,0701JD,048,471,24-Jan-2007 5:58:55 PM,24-Jan-2007 9:58:55 AM,34.18050,-119.51234,083.3 042.0,083.3,042.0,73.000,73.539,12.8305,12.8331,33.5838,33.5825,33.5831,33.5832,3.70387,4.48,4.53,0.1078,0.27,0.49,0.7230,10.73,8.841,25.3313,25.3302,0.5429,87.3086,5.1631e+00,9.9990e+03,,,,,,,
CalCOFI,0701JD,048,471,24-Jan-2007 5:58:56 PM,24-Jan-2007 9:58:56 AM,34.18050,-119.51234,083.3 042.0,083.3,042.0,72.000,72.531,12.8444,12.8450,33.5832,33.5819,33.5826,33.5827,3.72729,4.51,4.55,0.1049,0.26,0.47,0.7171,10.56,8.674,25.3281,25.3274,0.5421,87.3249,5.1731e+00,9.9990e+03,,,,,,,
CalCOFI,0701JD,048,471,24-Jan-2007 5:58:58 PM,24-Jan-2007 9:58:58 AM,34.18050,-119.51234,083.3 042.0,083.3,042.0,71.000,71.524,12.8633,12.8637,33.5837,33.5824,33.5829,33.5830,3.75599,4.54,4.59,0.0970,0.24,0.44,0.7142,10.47,8.592,25.3247,25.3239,0.5435,87.2956,5.2353e+00,9.9990e+03,,,,,,,
CalCOFI,0701JD,048,471,24-Jan-2007 5:58:59 PM,24-Jan-2007 9:58:59 AM,34.18050,-119.51234,083.3 042.0,083.3,042.0,70.000,70.516,12.8807,12.8815,33.5847,33.5834,33.5836,33.5837,3.79576,4.59,4.64,0.1051,0.27,0.48,0.7304,10.95,9.051,25.3220,25.3210,0.5472,87.2133,5.1895e+00,9.9990e+03,,,,,,,
CalCOFI,0701JD,048,471,24-Jan-2007 5:59:01 PM,24-Jan-2007 9:59:01 AM,34.18050,-119.51234,083.3 042.0,083.3,042.0,69.000,69.509,12.9282,12.9302,33.5852,33.5839,33.5843,33.5844,3.81007,4.61,4.65,0.1087,0.28,0.49,0.7091,10.32,8.447,25.3130,25.3119,0.5507,87.1374,5.0015e+00,9.9990e+03,,,,,,,
CalCOFI,0701JD,048,471,24-Jan-2007 5:59:44 PM,24-Jan-2007 9:59:44 AM,34.18068,-119.51244,083.3 042.0,083.3,042.0,68.000,68.501,12.9570,12.9437,33.5849,33.5836,33.5839,33.5840,3.87725,4.69,4.73,0.1152,0.30,0.53,0.6925,9.84,7.976,25.3070,25.3089,0.5497,87.1604,5.2491e+00,9.9990e+03,68,13.00 ,33.586, 4.74,.40,.29,7.1
CalCOFI,0701JD,048,471,24-Jan-2007 6:01:09 PM,24-Jan-2007 10:01:09 AM,34.18066,-119.51269,083.3 042.0,083.3,042.0,67.000,67.494,13.0209,13.0289,33.5857,33.5844,33.5847,33.5848,3.97605,4.81,4.85,0.1077,0.27,0.49,0.6617,8.93,7.102,25.2950,25.2926,0.5483,87.1906,5.3514e+00,9.9990e+03,,,,,,,
CalCOFI,0701JD,048,471,24-Jan-2007 6:01:08 PM,24-Jan-2007 10:01:08 AM,34.18066,-119.51268,083.3 042.0,083.3,042.0,66.000,66.486,13.0597,13.0801,33.5867,33.5854,33.5856,33.5857,4.00897,4.85,4.89,0.1231,0.32,0.56,0.6542,8.71,6.889,25.2880,25.2831,0.5479,87.1985,5.2807e+00,9.9990e+03,,,,,,,
CalCOFI,0701JD,048,471,24-Jan-2007 6:01:10 PM,24-Jan-2007 10:01:10 AM,34.18066,-119.51268,083.3 042.0,083.3,042.0,65.000,65.478,13.1043,13.1103,33.5883,33.5870,33.5876,33.5877,4.04667,4.90,4.93,0.1166,0.30,0.53,0.6515,8.63,6.813,25.2804,25.2786,0.5471,87.2165,5.6037e+00,9.9990e+03,,,,,,,
CalCOFI,0701JD,048,471,24-Jan-2007 6:01:12 PM,24-Jan-2007 10:01:12 AM,34.18066,-119.51268,083.3 042.0,083.3,042.0,64.000,64.471,13.1429,13.1482,33.5900,33.5887,33.5887,33.5888,4.08797,4.95,4.98,0.1181,0.30,0.54,0.6223,7.77,5.984,25.2739,25.2719,0.5468,87.2229,5.3386e+00,9.9990e+03,,,,,,,
CalCOFI,0701JD,048,471,24-Jan-2007 6:01:13 PM,24-Jan-2007 10:01:13 AM,34.18066,-119.51268,083.3 042.0,083.3,042.0,63.000,63.463,13.1730,13.1734,33.5909,33.5896,33.5894,33.5895,4.11876,4.99,5.02,0.1111,0.28,0.51,0.6223,7.77,5.984,25.2686,25.2673,0.5462,87.2360,5.0719e+00,9.9990e+03,,,,,,,
CalCOFI,0701JD,048,471,24-Jan-2007 6:01:15 PM,24-Jan-2007 10:01:15 AM,34.18066,-119.51268,083.3 042.0,083.3,042.0,62.000,62.456,13.1969,13.1974,33.5913,33.5900,33.5901,33.5902,4.14216,5.02,5.04,0.1122,0.29,0.51,0.6519,8.64,6.824,25.2641,25.2631,0.5484,87.1875,5.3110e+00,9.9990e+03,,,,,,,
CalCOFI,0701JD,048,471,24-Jan-2007 6:01:16 PM,24-Jan-2007 10:01:16 AM,34.18066,-119.51268,083.3 042.0,083.3,042.0,61.000,61.448,13.2156,13.2157,33.5915,33.5902,33.5903,33.5904,4.16534,5.04,5.07,0.1196,0.31,0.55,0.6341,8.12,6.319,25.2605,25.2596,0.5528,87.0922,4.8895e+00,9.9990e+03,,,,,,,
CalCOFI,0701JD,048,471,24-Jan-2007 6:01:18 PM,24-Jan-2007 10:01:18 AM,34.18066,-119.51268,083.3 042.0,083.3,042.0,60.000,60.441,13.2344,13.2484,33.5916,33.5903,33.5901,33.5902,4.22687,5.12,5.14,0.1182,0.30,0.54,0.5908,6.85,5.090,25.2568,25.2528,0.5550,87.0454,5.1950e+00,9.9990e+03,,,,,,,
CalCOFI,0701JD,048,471,24-Jan-2007 6:01:20 PM,24-Jan-2007 10:01:20 AM,34.18066,-119.51268,083.3 042.0,083.3,042.0,59.000,59.433,13.3028,13.3186,33.5917,33.5904,33.5890,33.5891,4.28016,5.18,5.21,0.1254,0.33,0.57,0.5871,6.74,4.985,25.2431,25.2379,0.5571,86.9982,5.2808e+00,9.9990e+03,,,,,,,
CalCOFI,0701JD,048,471,24-Jan-2007 6:01:21 PM,24-Jan-2007 10:01:21 AM,34.18066,-119.51268,083.3 042.0,083.3,042.0,58.000,58.426,13.3569,13.3584,33.5901,33.5888,33.5890,33.5891,4.30442,5.21,5.24,0.1172,0.30,0.53,0.5865,6.72,4.968,25.2310,25.2298,0.5600,86.9356,5.1423e+00,9.9990e+03,,,,,,,
CalCOFI,0701JD,048,471,24-Jan-2007 6:01:22 PM,24-Jan-2007 10:01:22 AM,34.18066,-119.51268,083.3 042.0,083.3,042.0,57.000,57.418,13.3748,13.3741,33.5896,33.5883,33.5886,33.5887,4.30968,5.22,5.24,0.1085,0.28,0.49,0.5779,6.47,4.724,25.2270,25.2263,0.5559,87.0242,5.7458e+00,9.9990e+03,57,13.40 ,33.588, 5.30,.46,.30,3.7
CalCOFI,0701JD,048,471,24-Jan-2007 6:01:57 PM,24-Jan-2007 10:01:57 AM,34.18066,-119.51275,083.3 042.0,083.3,042.0,56.000,56.411,13.3860,13.3852,33.5872,33.5859,33.5872,33.5873,4.33558,5.25,5.27,0.1263,0.33,0.58,0.5753,6.39,4.651,25.2228,25.2229,0.5499,87.1554,5.3251e+00,9.9990e+03,,,,,,,
CalCOFI,0701JD,048,471,24-Jan-2007 6:02:50 PM,24-Jan-2007 10:02:50 AM,34.18066,-119.51284,083.3 042.0,083.3,042.0,55.000,55.404,13.4064,13.4052,33.5868,33.5855,33.5858,33.5859,4.41869,5.35,5.37,0.1545,0.42,0.70,0.5454,5.52,3.802,25.2184,25.2178,0.5482,87.1921,5.3053e+00,9.9990e+03,,,,,,,
CalCOFI,0701JD,048,471,24-Jan-2007 6:02:52 PM,24-Jan-2007 10:02:52 AM,34.18066,-119.51284,083.3 042.0,083.3,042.0,54.000,54.396,13.4275,13.4291,33.5860,33.5847,33.5849,33.5850,4.45433,5.40,5.41,0.1545,0.42,0.70,0.5478,5.59,3.870,25.2134,25.2123,0.5585,86.9677,5.4582e+00,9.9990e+03,,,,,,,
CalCOFI,0701JD,048,471,24-Jan-2007 6:02:54 PM,24-Jan-2007 10:02:54 AM,34.18066,-119.51292,083.3 042.0,083.3,042.0,53.000,53.389,13.4479,13.4490,33.5861,33.5848,33.5852,33.5853,4.48280,5.43,5.45,0.1369,0.36,0.62,0.5533,5.75,4.026,25.2094,25.2084,0.5708,86.7010,5.4396e+00,9.9990e+03,,,,,,,
CalCOFI,0701JD,048,471,24-Jan-2007 6:02:56 PM,24-Jan-2007 10:02:56 AM,34.18066,-119.51300,083.3 042.0,083.3,042.0,52.000,52.381,13.4596,13.4578,33.5861,33.5848,33.5850,33.5851,4.50039,5.45,5.47,0.1365,0.36,0.62,0.5241,4.89,3.198,25.2069,25.2065,0.5802,86.4970,5.3450e+00,9.9990e+03,,,,,,,
CalCOFI,0701JD,048,471,24-Jan-2007 6:02:58 PM,24-Jan-2007 10:02:58 AM,34.18066,-119.51300,083.3 042.0,083.3,042.0,51.000,51.374,13.4847,13.4845,33.5859,33.5846,33.5850,33.5851,4.52752,5.48,5.50,0.1407,0.37,0.64,0.5039,4.30,2.625,25.2017,25.2010,0.5759,86.5905,5.7112e+00,9.9990e+03,,,,,,,
CalCOFI,0701JD,048,471,24-Jan-2007 6:02:59 PM,24-Jan-2007 10:02:59 AM,34.18066,-119.51300,083.3 042.0,083.3,042.0,50.000,50.366,13.5096,13.5121,33.5864,33.5851,33.5851,33.5852,4.58620,5.56,5.57,0.1501,0.40,0.68,0.5105,4.49,2.812,25.1970,25.1955,0.5667,86.7897,5.1578e+00,9.9990e+03,,,,,,,
CalCOFI,0701JD,048,471,24-Jan-2007 6:03:01 PM,24-Jan-2007 10:03:01 AM,34.18066,-119.51300,083.3 042.0,083.3,042.0,49.000,49.359,13.5943,13.5780,33.5884,33.5871,33.5853,33.5854,4.62439,5.60,5.61,0.1448,0.39,0.66,0.5183,4.72,3.033,25.1813,25.1822,0.5639,86.8502,5.1209e+00,9.9990e+03,,,,,,,
CalCOFI,0701JD,048,471,24-Jan-2007 6:03:03 PM,24-Jan-2007 10:03:03 AM,34.18066,-119.51300,083.3 042.0,083.3,042.0,48.000,48.351,13.6456,13.6391,33.5888,33.5875,33.5846,33.5847,4.67641,5.67,5.67,0.1637,0.44,0.73,0.5052,4.34,2.662,25.1711,25.1692,0.5632,86.8663,5.4762e+00,9.9990e+03,,,,,,,
CalCOFI,0701JD,048,471,24-Jan-2007 6:03:06 PM,24-Jan-2007 10:03:06 AM,34.18066,-119.51300,083.3 042.0,083.3,042.0,47.000,47.344,13.6913,13.6947,33.5866,33.5853,33.5854,33.5855,4.70405,5.70,5.71,0.3090,0.92,1.07,0.4597,3.00,1.371,25.1600,25.1584,0.5618,86.8958,5.5108e+00,9.9990e+03,,,,,,,
CalCOFI,0701JD,048,471,24-Jan-2007 6:03:30 PM,24-Jan-2007 10:03:30 AM,34.18066,-119.51303,083.3 042.0,083.3,042.0,46.000,46.336,13.6946,13.6868,33.5854,33.5841,33.5850,33.5851,4.70451,5.70,5.71,0.2146,0.61,0.90,0.4793,3.58,1.927,25.1584,25.1596,0.5593,86.9518,5.3850e+00,9.9990e+03,46,13.70 ,33.585, 5.70,.80,.35,1.6
CalCOFI,0701JD,048,471,24-Jan-2007 6:04:59 PM,24-Jan-2007 10:04:59 AM,34.18066,-119.51317,083.3 042.0,083.3,042.0,45.000,45.329,13.7128,13.7125,33.5851,33.5838,33.5841,33.5842,4.73202,5.73,5.74,0.1984,0.55,0.85,0.4558,2.89,1.260,25.1544,25.1536,0.5550,87.0438,5.6780e+00,9.9990e+03,,,,,,,
CalCOFI,0701JD,048,471,24-Jan-2007 6:05:06 PM,24-Jan-2007 10:05:06 AM,34.18066,-119.51318,083.3 042.0,083.3,042.0,44.000,44.322,13.7221,13.7221,33.5847,33.5834,33.5839,33.5840,4.71940,5.72,5.72,0.2159,0.61,0.90,0.4388,2.39,0.778,25.1522,25.1515,0.5519,87.1119,5.2866e+00,9.9990e+03,,,,,,,
CalCOFI,0701JD,048,471,24-Jan-2007 6:05:08 PM,24-Jan-2007 10:05:08 AM,34.18066,-119.51318,083.3 042.0,083.3,042.0,43.000,43.314,13.7277,13.7282,33.5844,33.5831,33.5835,33.5836,4.70649,5.70,5.71,0.1839,0.51,0.80,0.4833,3.69,2.040,25.1507,25.1500,0.5483,87.1903,5.4786e+00,9.9990e+03,,,,,,,
CalCOFI,0701JD,048,471,24-Jan-2007 6:05:09 PM,24-Jan-2007 10:05:09 AM,34.18066,-119.51318,083.3 042.0,083.3,042.0,42.000,42.307,13.7274,13.7293,33.5842,33.5829,33.5832,33.5833,4.69225,5.69,5.69,0.2587,0.75,1.00,0.4771,3.51,1.864,25.1506,25.1494,0.5439,87.2863,5.6997e+00,9.9990e+03,,,,,,,
CalCOFI,0701JD,048,471,24-Jan-2007 6:05:11 PM,24-Jan-2007 10:05:11 AM,34.18066,-119.51318,083.3 042.0,083.3,042.0,41.000,41.299,13.7295,13.7305,33.5840,33.5827,33.5831,33.5832,4.68397,5.68,5.68,0.2772,0.81,1.03,0.4677,3.24,1.598,25.1500,25.1491,0.5408,87.3541,5.4429e+00,9.9990e+03,41,13.76 ,33.584, 5.68,.83,.41,1.6